Location: Appleton
(44.2618°N, 88.4157°W)
Time: 19:55:05
(UTC+00:00)

Tiros 1 despin weight - Pass Details

Date: 07 March 2021
Orbit: 593 x 641 km, 48.2° (Epoch: 12 April)

Event Time Altitude Azimuth Distance (km) Brightness Sun altitude
Exits shadow 09:38:48 18° 138° (SE) 1,562 ? -29.1°
Drops below altitude 10° 09:40:03 10° 133° (SE) 2,024 ? -28.9°
Sets 09:42:24 0° 129° (SE) 2,932 ? -28.5°
